sat.trackr.live / text

‹ back to catalog

STARLINK-3607

NORAD 51809 · 2022-017AT

PAYLOAD ACTIVE UNKNOWN

§ Identity

Operator
Country
US
Launch date
2022-02-25
Launch site
AFWTR
Launch vehicle
Mass (kg)
RCS (m²)

Purposes: comms

External: N2YO · Heavens-Above · Gunter

§ Orbital elements

Epoch: 2026-09-19T06:42:01.397376Z

Period
93.90 min
Inclination
53.1605°
Eccentricity
0.0001587
Mean motion
15.33544550 rev/d
Perigee alt
464.2 km
Apogee alt
466.3 km
Semi-major
6,843.4 km
B*
2.5121e-5
RAAN
177.7454°
Arg perigee
86.8910°
Mean anomaly
273.2274°
Rev number
25,345

§ Raw data

STARLINK-36071 51809U 22017AT  26262.27918284  .00000453  00000+0  25121-4 0  99902 51809  53.1605 177.7454 0001587  86.8910 273.2274 15.33544550253454

JSON: /api/v1/satellites/51809 · /tle

For live sub-satellite position, see the globe view (requires WebGL).

§ Visibility from observer

Set your observer location to see the next 7 days of passes ≥ 10°. The values pass through the URL so the page stays shareable.

No JS? Fill the form by hand. The geolocation button needs JavaScript.